Time,TemperatureF,DewpointF,PressureIn,WindDirection,WindDirectionDegrees,WindSpeedMPH,WindSpeedGustMPH,Humidity,HourlyPrecipIn,Conditions,Clouds,dailyrainin,SoftwareType,DateUTC
2013-09-09 00:02:00,45.4,43.0,29.79,North,360,0.0,-999.0,90,-99.99,,,0.01,weatherlink.com 1.10,2013-09-09 08:02:00,
2013-09-09 00:17:00,45.5,43.0,29.80,North,360,0.0,-999.0,90,-99.99,,,0.00,weatherlink.com 1.10,2013-09-09 08:17:00,
2013-09-09 00:32:00,45.4,43.0,29.80,North,360,0.0,-999.0,90,-99.99,,,0.00,weatherlink.com 1.10,2013-09-09 08:32:00,
2013-09-09 00:47:00,45.2,43.0,29.80,North,360,0.0,-999.0,90,-99.99,,,0.00,weatherlink.com 1.10,2013-09-09 08:47:00,
2013-09-09 01:02:00,45.1,42.0,29.81,North,360,0.0,-999.0,90,-99.99,,,0.00,weatherlink.com 1.10,2013-09-09 09:02:00,
2013-09-09 01:17:00,45.0,42.0,29.81,North,-999,0.0,-999.0,90,-99.99,,,0.00,weatherlink.com 1.10,2013-09-09 09:17:00,
2013-09-09 01:32:00,45.0,42.0,29.81,North,360,0.0,-999.0,90,-99.99,,,0.00,weatherlink.com 1.10,2013-09-09 09:32:00,
2013-09-09 01:47:00,45.0,42.0,29.81,North,-999,0.0,-999.0,90,-99.99,,,0.00,weatherlink.com 1.10,2013-09-09 09:47:00,
2013-09-09 02:02:00,45.0,42.0,29.82,North,-999,0.0,-999.0,90,-99.99,,,0.00,weatherlink.com 1.10,2013-09-09 10:02:00,
2013-09-09 02:17:00,45.0,42.0,29.82,North,-999,0.0,-999.0,90,-99.99,,,0.00,weatherlink.com 1.10,2013-09-09 10:17:00,
2013-09-09 02:32:00,44.9,42.0,29.82,North,-999,0.0,-999.0,90,-99.99,,,0.00,weatherlink.com 1.10,2013-09-09 10:32:00,
2013-09-09 02:47:00,44.9,42.0,29.82,North,-999,0.0,-999.0,90,-99.99,,,0.00,weatherlink.com 1.10,2013-09-09 10:47:00,
2013-09-09 03:02:00,45.0,42.0,29.82,North,-999,0.0,-999.0,90,-99.99,,,0.00,weatherlink.com 1.10,2013-09-09 11:02:00,
2013-09-09 03:17:00,45.0,42.0,29.82,North,360,0.0,-999.0,90,-99.99,,,0.00,weatherlink.com 1.10,2013-09-09 11:17:00,
2013-09-09 03:32:00,45.0,42.0,29.82,North,360,0.0,-999.0,90,-99.99,,,0.00,weatherlink.com 1.10,2013-09-09 11:32:00,
2013-09-09 03:47:00,45.0,42.0,29.82,North,-999,0.0,-999.0,90,-99.99,,,0.00,weatherlink.com 1.10,2013-09-09 11:47:00,
2013-09-09 04:02:00,45.0,42.0,29.82,North,360,0.0,-999.0,89,-99.99,,,0.00,weatherlink.com 1.10,2013-09-09 12:02:00,
2013-09-09 04:17:00,45.0,42.0,29.82,North,-999,0.0,-999.0,89,-99.99,,,0.00,weatherlink.com 1.10,2013-09-09 12:17:00,
2013-09-09 04:32:00,45.0,42.0,29.82,North,-999,0.0,-999.0,89,-99.99,,,0.00,weatherlink.com 1.10,2013-09-09 12:32:00,
2013-09-09 04:47:00,45.1,42.0,29.82,North,-999,0.0,-999.0,89,-99.99,,,0.00,weatherlink.com 1.10,2013-09-09 12:47:00,
2013-09-09 05:02:00,45.1,42.0,29.82,North,-999,0.0,-999.0,89,-99.99,,,0.00,weatherlink.com 1.10,2013-09-09 13:02:00,
2013-09-09 05:17:00,44.8,42.0,29.82,North,360,0.0,-999.0,89,-99.99,,,0.00,weatherlink.com 1.10,2013-09-09 13:17:00,
2013-09-09 05:32:00,44.5,42.0,29.82,North,360,0.0,-999.0,89,-99.99,,,0.00,weatherlink.com 1.10,2013-09-09 13:32:00,
2013-09-09 05:47:00,44.3,41.0,29.82,North,360,0.0,-999.0,89,-99.99,,,0.00,weatherlink.com 1.10,2013-09-09 13:47:00,
2013-09-09 06:02:00,44.4,41.0,29.82,North,-999,0.0,-999.0,89,-99.99,,,0.00,weatherlink.com 1.10,2013-09-09 14:02:00,
2013-09-09 06:17:00,44.2,41.0,29.82,North,360,0.0,-999.0,89,-99.99,,,0.00,weatherlink.com 1.10,2013-09-09 14:17:00,
2013-09-09 06:32:00,44.0,41.0,29.82,North,-999,0.0,-999.0,89,-99.99,,,0.00,weatherlink.com 1.10,2013-09-09 14:32:00,
2013-09-09 06:47:00,43.7,41.0,29.82,North,-999,0.0,-999.0,89,-99.99,,,0.00,weatherlink.com 1.10,2013-09-09 14:47:00,
2013-09-09 07:02:00,43.4,41.0,29.82,North,-999,0.0,-999.0,90,-99.99,,,0.00,weatherlink.com 1.10,2013-09-09 15:02:00,
2013-09-09 07:17:00,43.3,40.0,29.82,North,-999,0.0,-999.0,89,-99.99,,,0.00,weatherlink.com 1.10,2013-09-09 15:17:00,
2013-09-09 07:32:00,43.3,41.0,29.83,North,-999,0.0,-999.0,90,-99.99,,,0.00,weatherlink.com 1.10,2013-09-09 15:32:00,
2013-09-09 07:47:00,43.0,40.0,29.82,North,-999,0.0,-999.0,89,-99.99,,,0.00,weatherlink.com 1.10,2013-09-09 15:47:00,
2013-09-09 08:02:00,42.7,40.0,29.82,North,-999,0.0,-999.0,89,-99.99,,,0.00,weatherlink.com 1.10,2013-09-09 16:02:00,
2013-09-09 08:17:00,43.2,40.0,29.82,North,360,0.0,-999.0,89,-99.99,,,0.00,weatherlink.com 1.10,2013-09-09 16:17:00,
2013-09-09 08:47:00,43.8,41.0,29.82,North,360,0.0,-999.0,89,-99.99,,,0.00,weatherlink.com 1.10,2013-09-09 16:47:00,
2013-09-09 09:02:00,44.1,41.0,29.83,North,-999,0.0,-999.0,89,-99.99,,,0.00,weatherlink.com 1.10,2013-09-09 17:02:00,
2013-09-09 09:17:00,44.3,41.0,29.82,North,-999,0.0,-999.0,89,-99.99,,,0.00,weatherlink.com 1.10,2013-09-09 17:17:00,
2013-09-09 09:32:00,43.5,41.0,29.82,North,-999,0.0,-999.0,89,-99.99,,,0.00,weatherlink.com 1.10,2013-09-09 17:32:00,
2013-09-09 09:47:00,44.2,41.0,29.82,North,-999,0.0,-999.0,89,-99.99,,,0.00,weatherlink.com 1.10,2013-09-09 17:47:00,
2013-09-09 10:02:00,44.5,42.0,29.82,North,360,0.0,-999.0,89,-99.99,,,0.01,weatherlink.com 1.10,2013-09-09 18:02:00,
2013-09-09 10:17:00,45.0,42.0,29.82,North,360,0.0,-999.0,88,-99.99,,,0.01,weatherlink.com 1.10,2013-09-09 18:17:00,
2013-09-09 10:32:00,45.7,42.0,29.82,North,360,0.0,-999.0,88,-99.99,,,0.01,weatherlink.com 1.10,2013-09-09 18:32:00,
2013-09-09 10:47:00,46.5,43.0,29.82,North,-999,0.0,-999.0,88,-99.99,,,0.01,weatherlink.com 1.10,2013-09-09 18:47:00,
2013-09-09 11:02:00,47.4,44.0,29.81,North,360,0.0,-999.0,88,-99.99,,,0.01,weatherlink.com 1.10,2013-09-09 19:02:00,
2013-09-09 11:17:00,48.0,45.0,29.81,North,360,0.0,-999.0,88,-99.99,,,0.01,weatherlink.com 1.10,2013-09-09 19:17:00,
2013-09-09 11:33:00,48.5,45.0,29.81,North,-999,0.0,-999.0,88,-99.99,,,0.01,weatherlink.com 1.10,2013-09-09 19:33:00,
2013-09-09 12:03:00,49.2,46.0,29.80,North,-999,0.0,-999.0,87,-99.99,,,0.01,weatherlink.com 1.10,2013-09-09 20:03:00,
2013-09-09 12:18:00,50.0,46.0,29.80,North,360,0.0,-999.0,87,-99.99,,,0.01,weatherlink.com 1.10,2013-09-09 20:18:00,
2013-09-09 12:33:00,50.4,47.0,29.80,North,-999,0.0,-999.0,87,-99.99,,,0.01,weatherlink.com 1.10,2013-09-09 20:33:00,
2013-09-09 12:48:00,50.9,47.0,29.80,North,-999,0.0,-999.0,87,-99.99,,,0.01,weatherlink.com 1.10,2013-09-09 20:48:00,
2013-09-09 13:03:00,51.6,48.0,29.79,North,360,0.0,-999.0,87,-99.99,,,0.01,weatherlink.com 1.10,2013-09-09 21:03:00,
2013-09-09 13:18:00,51.6,49.0,29.79,North,-999,0.0,-999.0,89,-99.99,,,0.01,weatherlink.com 1.10,2013-09-09 21:18:00,
2013-09-09 13:33:00,52.1,50.0,29.79,North,360,0.0,-999.0,91,-99.99,,,0.01,weatherlink.com 1.10,2013-09-09 21:33:00,
2013-09-09 13:48:00,53.1,52.0,29.78,North,-999,0.0,-999.0,94,-99.99,,,0.01,weatherlink.com 1.10,2013-09-09 21:48:00,
2013-09-09 14:03:00,54.3,53.0,29.78,North,360,0.0,-999.0,95,-99.99,,,0.01,weatherlink.com 1.10,2013-09-09 22:03:00,
2013-09-09 14:18:00,55.8,51.0,29.78,North,-999,0.0,-999.0,85,-99.99,,,0.01,weatherlink.com 1.10,2013-09-09 22:18:00,
2013-09-09 14:33:00,56.0,51.0,29.77,North,-999,0.0,-999.0,84,-99.99,,,0.01,weatherlink.com 1.10,2013-09-09 22:33:00,
2013-09-09 14:48:00,57.1,51.0,29.77,North,-999,0.0,-999.0,81,-99.99,,,0.01,weatherlink.com 1.10,2013-09-09 22:48:00,
2013-09-09 15:03:00,56.5,51.0,29.76,North,-999,0.0,-999.0,83,-99.99,,,0.01,weatherlink.com 1.10,2013-09-09 23:03:00,
2013-09-09 15:18:00,56.8,50.0,29.76,North,-999,0.0,-999.0,78,-99.99,,,0.01,weatherlink.com 1.10,2013-09-09 23:18:00,
2013-09-09 15:33:00,56.3,50.0,29.76,North,-999,0.0,-999.0,80,-99.99,,,0.01,weatherlink.com 1.10,2013-09-09 23:33:00,
2013-09-09 15:48:00,55.7,50.0,29.76,North,360,0.0,-999.0,80,-99.99,,,0.01,weatherlink.com 1.10,2013-09-09 23:48:00,
2013-09-09 16:03:00,55.7,51.0,29.75,North,360,0.0,-999.0,83,-99.99,,,0.01,weatherlink.com 1.10,2013-09-10 00:03:00,
2013-09-09 16:18:00,55.5,51.0,29.75,North,360,0.0,-999.0,85,-99.99,,,0.01,weatherlink.com 1.10,2013-09-10 00:18:00,
2013-09-09 16:33:00,55.1,50.0,29.75,North,-999,0.0,-999.0,84,-99.99,,,0.01,weatherlink.com 1.10,2013-09-10 00:33:00,
2013-09-09 16:48:00,55.1,51.0,29.74,North,360,0.0,-999.0,86,-99.99,,,0.01,weatherlink.com 1.10,2013-09-10 00:48:00,
2013-09-09 17:03:00,54.6,51.0,29.74,North,-999,0.0,-999.0,87,-99.99,,,0.01,weatherlink.com 1.10,2013-09-10 01:03:00,
2013-09-09 17:18:00,54.5,50.0,29.73,North,-999,0.0,-999.0,85,-99.99,,,0.01,weatherlink.com 1.10,2013-09-10 01:18:00,
2013-09-09 17:33:00,54.4,51.0,29.73,North,-999,0.0,-999.0,88,-99.99,,,0.01,weatherlink.com 1.10,2013-09-10 01:33:00,
2013-09-09 17:48:00,54.2,51.0,29.72,North,-999,0.0,-999.0,88,-99.99,,,0.01,weatherlink.com 1.10,2013-09-10 01:48:00,
2013-09-09 18:03:00,53.9,51.0,29.71,North,360,0.0,-999.0,89,-99.99,,,0.01,weatherlink.com 1.10,2013-09-10 02:03:00,
2013-09-09 18:18:00,54.5,49.0,29.70,North,-999,0.0,-999.0,83,-99.99,,,0.01,weatherlink.com 1.10,2013-09-10 02:18:00,
2013-09-09 18:33:00,55.2,49.0,29.70,North,-999,0.0,-999.0,79,-99.99,,,0.01,weatherlink.com 1.10,2013-09-10 02:33:00,
2013-09-09 18:48:00,56.0,49.0,29.71,North,-999,0.0,-999.0,77,-99.99,,,0.01,weatherlink.com 1.10,2013-09-10 02:48:00,
2013-09-09 19:03:00,56.0,50.0,29.70,North,-999,0.0,-999.0,79,-99.99,,,0.01,weatherlink.com 1.10,2013-09-10 03:03:00,
2013-09-09 19:18:00,55.4,49.0,29.70,North,360,0.0,-999.0,80,-99.99,,,0.01,weatherlink.com 1.10,2013-09-10 03:18:00,
2013-09-09 19:33:00,54.2,50.0,29.70,North,360,0.0,-999.0,84,-99.99,,,0.01,weatherlink.com 1.10,2013-09-10 03:33:00,
2013-09-09 19:48:00,53.0,49.0,29.70,North,360,0.0,-999.0,85,-99.99,,,0.01,weatherlink.com 1.10,2013-09-10 03:48:00,
2013-09-09 20:03:00,52.5,49.0,29.70,North,-999,0.0,-999.0,87,-99.99,,,0.01,weatherlink.com 1.10,2013-09-10 04:03:00,
2013-09-09 20:18:00,52.2,48.0,29.70,North,-999,0.0,-999.0,85,-99.99,,,0.01,weatherlink.com 1.10,2013-09-10 04:18:00,
2013-09-09 20:33:00,52.3,48.0,29.70,North,-999,0.0,-999.0,84,-99.99,,,0.01,weatherlink.com 1.10,2013-09-10 04:33:00,
2013-09-09 20:48:00,52.3,48.0,29.70,North,-999,0.0,-999.0,84,-99.99,,,0.01,weatherlink.com 1.10,2013-09-10 04:48:00,
2013-09-09 21:04:00,52.2,47.0,29.70,North,-999,0.0,-999.0,83,-99.99,,,0.01,weatherlink.com 1.10,2013-09-10 05:04:00,
2013-09-09 21:18:00,51.6,46.0,29.70,North,360,0.0,-999.0,82,-99.99,,,0.01,weatherlink.com 1.10,2013-09-10 05:18:00,
2013-09-09 21:33:00,51.0,46.0,29.70,North,360,0.0,-999.0,83,-99.99,,,0.01,weatherlink.com 1.10,2013-09-10 05:33:00,
2013-09-09 21:49:00,50.3,46.0,29.70,North,-999,0.0,-999.0,85,-99.99,,,0.01,weatherlink.com 1.10,2013-09-10 05:49:00,
2013-09-09 22:04:00,49.9,46.0,29.70,North,360,0.0,-999.0,86,-99.99,,,0.01,weatherlink.com 1.10,2013-09-10 06:04:00,
2013-09-09 22:19:00,50.0,46.0,29.70,North,-999,0.0,-999.0,86,-99.99,,,0.01,weatherlink.com 1.10,2013-09-10 06:19:00,
2013-09-09 22:34:00,49.8,46.0,29.70,North,360,0.0,-999.0,86,-99.99,,,0.01,weatherlink.com 1.10,2013-09-10 06:34:00,
2013-09-09 22:49:00,49.2,46.0,29.70,North,-999,0.0,-999.0,87,-99.99,,,0.01,weatherlink.com 1.10,2013-09-10 06:49:00,
2013-09-09 23:04:00,48.8,45.0,29.69,North,360,0.0,-999.0,87,-99.99,,,0.01,weatherlink.com 1.10,2013-09-10 07:04:00,
2013-09-09 23:19:00,48.5,45.0,29.69,North,360,0.0,-999.0,87,-99.99,,,0.01,weatherlink.com 1.10,2013-09-10 07:19:00,
2013-09-09 23:34:00,48.3,45.0,29.70,North,-999,0.0,-999.0,87,-99.99,,,0.01,weatherlink.com 1.10,2013-09-10 07:34:00,
2013-09-09 23:49:00,47.7,44.0,29.70,North,360,0.0,-999.0,88,-99.99,,,0.01,weatherlink.com 1.10,2013-09-10 07:49:00,